CZ-2D DEB, 43490

Orbit data source: Space-Track

CZ-2D DEB, 43490 is space debris in SSO originally from a launch on Sat, 02 Jun 2018 UTC launched from the Jiuquan Satellite Launch Center, China (JSC). Debris objects in space refer to the collection of defunct objects orbiting the Earth. Examples of debris include non-operational satellites, rocket bodies, and fragments generated from explosions, collisions, or faulty payload assembly.

Loading next visibility...
Identifier
43490, 2018-048E
Orbit
SSO
Country
Flag of CNCN / PRC
Related business
Manufacturer
CALT
Mission
Spacecraft
Bus & Motor
Unknown
Mass
1 kg wet, 1 kg dry
Launch date (UTC)
2018-06-02 (8 years ago)
Launch vehicle
Unknown
Launch site
Jiuquan Satellite Launch Center, China (JSC)
Object type
Payload
Rocket body
Debris
Shape & HBR
Cone, 0.1 m
Radar Cross Section
0.025 m², Medium (>0.1 m² and < 1m²)

Expand to show TLE details & history
Last TLE update: 2 days ago

TLE from 2 days ago
0 CZ-2D DEB
1 43490U 18048E   26171.40436358  .00004083  00000-0  36513-3 0  9997
2 43490  98.2737 339.2418 0024086 135.5277 224.7882 14.96280177434669
Epoch: 2026-06-20T09:42Z
TLE epoch observation values (Epoch: 2026-06-20T09:42:17.013Z)
Latitude
0.00001°
Longitude
-74.94856°
Altitude
593.348 km
Speed
7.557 km/s
True Right ascension
22h 36m 58s
True Declination
0° 00' 00"
Sunlit
Object was in daylight at epoch
Visualization orbit readout
Latitude
Unknown
Longitude
Unknown
Altitude
Unknown
Speed
Unknown
Apparent Right ascension
Unknown
Apparent Declination
Unknown
Sunlit
N/A
Visualization observer readout
Local Sidereal Time
23:26:59
Azimuth
Unknown
Elevation
Unknown
Doppler factor
Unknown
Orbital elements
Apogee altitude
592.187 km
Perigee altitude
558.69 km
Semi-major axis
6,953.575 km
Eccentricity
0.00241
Inclination
98.2737°
RAAN
339.2418°
Arg. of periapsis
135.5277°
True anomaly
224.59417°
Mean anomaly
224.7882°
Eccentric anomaly
224.69114°
Mean motion
3.7431 °/min
Orbital period
96.18 mins
BSTAR
0.00036513
Loading maneuver chart data...
Computing Atmospheric mass density...
Loading historical data...
Loading historical data...
Loading historical data...
Loading historical data...
Loading historical data...
Loading historical data...
Loading historical data...
Other satellites on launch #48 in the year 2018 (2018-06-02 UTC)

Documentation

Showing up to 5 results
|